Regional Weather Roundup
Issued by NWS

Home | Current Version | Previous Version | Text Only | Print | Product List | Glossary On
Versions: 1 2 3 4 5 6 7 8 9 10 11 12 13 14 15 16 17 18 19 20 21 22 23 24 25 26 27 28 29 30 31 32 33 34 35 36 37 38 39 40 41 42 43 44 45 46 47 48 49 50
000
ASUS44 KBMX 301110
RWRAL

ALABAMA REGIONAL WEATHER ROUNDUP
NATIONAL WEATHER SERVICE BIRMINGHAM AL
600 AM CDT MON MAY 30 2016

NOTE: "FAIR" INDICATES FEW OR NO CLOUDS BELOW 12,000 FEET
WITH NO SIGNIFICANT WEATHER AND/OR OBSTRUCTIONS TO VISIBILITY.

THE REMARK "TC" DENOTES TEMPERATURE IN DEGREES CELSIUS.

ALZ001>011-014-016>018-020-301200-
NORTH ALABAMA

CITY           SKY/WX    TMP DP  RH WIND       PRES   REMARKS
MUSCLE SHOALS  CLEAR     66  62  87 CALM      30.05R
HUNTSVILLE     PTCLDY    64  61  90 CALM      30.03R
DECATUR        CLEAR     64  63  96 CALM      30.04R
HALEYVILLE     FAIR      63  62  97 CALM      30.06R FOG
GADSDEN        CLEAR     64  62  93 CALM      30.03R
$$

ALZ012-013-022-023-030>036-040>044-301200-
WEST CENTRAL ALABAMA

CITY           SKY/WX    TMP DP  RH WIND       PRES   REMARKS
TUSCALOOSA     CLEAR     66  65  96 CALM      30.02R
$$

ALZ015-024>027-033>036-040>044-301200-
CENTRAL ALABAMA

CITY           SKY/WX    TMP DP  RH WIND       PRES   REMARKS
BIRMINGHAM     PTCLDY    67  64  90 CALM      30.05R
MONTGOMERY     CLEAR     68  65  90 CALM      30.02R
SHELBY CO ARPT CLEAR     67  65  93 CALM      30.03R FOG
MAXWELL AFB    FOG       68  66  94 S3        30.00R VSB 3/4
GREENVILLE     FAIR      68  63  84 CALM      30.01R
$$

ALZ019-021-028-029-037-038-045>048-301200-
EAST CENTRAL ALABAMA

CITY           SKY/WX    TMP DP  RH WIND       PRES   REMARKS
ANNISTON       PTCLDY    65  63  93 CALM      30.03R
ALEXANDER CITY PTCLDY    65  65 100 CALM      30.03R
AUBURN         CLEAR    N/A N/A N/A NW5       30.04R
$$

ALZ051>064-301200-
SOUTHWEST ALABAMA

CITY           SKY/WX    TMP DP  RH WIND       PRES   REMARKS
MOBILE         PTCLDY    68  68 100 CALM      30.02R
BROOKLEY FIELD PTCLDY    71  69  93 CALM      30.02R
EVERGREEN      CLEAR     66  64  93 CALM      30.02R
$$

ALZ049-050-065>069-301200-
SOUTHEAST ALABAMA

CITY           SKY/WX    TMP DP  RH WIND       PRES   REMARKS
DOTHAN         CLEAR     71  67  87 N3        30.04R
OZARK          CLEAR     70  68  94 CALM      30.01R FOG
TROY           PTCLDY    67  65  93 CALM      30.02R
EUFAULA        FAIR      65  63  93 CALM      30.00R
$$



USA.gov is the U.S. government's official web portal to all federal, state and local government web resources and services.